Powrót do katalogu

HULIANWANG DIGUI-67

AktywnyŁącznośćPO
NORAD 65173·PAYLOAD·🇨🇳 China

Wystrzelony Aug 13, 2025 z Wenchang Space Launch Site

Loading…

Następne Przeloty (najbliższe 24 godziny)

TLE

ŚwieżeSource: Space-Track

Epoka: Sep 14, 2026, 22:26 UTC

1 65173U 25174K   26257.93497960  .00000052  00000-0  86463-4 0  9998
2 65173  86.4943 221.6268 0002241  80.2942 279.8445 13.24400912 52630

Śledź HULIANWANG DIGUI-67 w czasie rzeczywistym z AllMySat

Download on the App Store